Wind_Speed
13 13 13 13 14 14 13 13 13 13 12 13 13 14 13 13 12 11 11 11 11 12 11 11 11 12 12 12 11 10 13 15 14 10 8 9 9 10 10 10 7 8 11 8 6 6 5 6 9 10 7 3 3 3 6 6 4 2 2 2 2 3 3 5 7 6 4 2 5 8 4 2 5 3 2 2 2 6 11 10 11 12 13 17 23 30 31 30
14 14 13 13 14 15 15 14 14 13 13 13 13 14 14 13 13 11 10 11 11 12 11 11 11 11 12 11 9 10 14 16 13 12 13 10 7 11 14 10 6 7 12 11 10 11 7 6 9 8 4 1 3 3 3 4 6 2 2 3 4 4 4 6 8 8 6 5 7 9 4 3 4 4 2 3 1 6 12 11 13 15 16 20 26 29 29 29
15 15 15 14 14 15 15 15 15 15 14 13 12 13 13 13 14 13 12 11 11 11 11 11 11 11 11 10 8 10 14 12 7 8 5 4 8 12 15 13 9 9 10 9 10 13 9 6 6 5 3 3 4 4 4 3 4 0 2 2 4 4 3 4 7 8 6 6 8 10 6 3 4 4 2 4 3 8 14 12 15 17 18 19 21 26 28 26
16 17 16 16 16 16 16 16 16 16 15 14 12 12 13 13 14 13 12 12 12 11 11 10 11 11 11 9 7 10 10 5 2 4 1 2 5 11 16 15 12 10 9 7 7 11 10 7 5 3 4 5 4 4 5 3 3 0 2 2 4 3 2 3 7 7 4 4 6 9 9 5 4 5 2 6 7 8 12 14 17 20 20 20 19 22 25 24
17 17 18 18 18 18 18 17 17 16 16 15 14 13 13 13 14 14 12 11 11 11 10 10 10 10 9 8 5 7 7 2 1 4 2 2 1 10 18 16 13 12 9 8 8 8 9 8 4 3 4 5 5 4 4 3 4 2 1 1 2 2 2 1 6 8 7 4 4 8 8 6 5 3 0 6 7 6 10 15 19 20 19 19 19 20 23 22
17 18 19 20 20 20 20 19 18 18 17 17 15 14 14 13 14 15 13 10 11 11 10 9 9 9 8 6 3 4 3 1 5 4 2 2 4 8 16 16 13 12 11 9 7 4 5 5 3 3 3 4 4 2 2 4 5 4 2 2 3 3 3 2 4 8 5 6 7 6 3 2 4 2 1 4 3 5 12 17 19 19 20 21 21 20 19 17
18 19 20 21 22 21 21 20 20 19 18 18 17 16 15 14 14 14 12 10 10 10 9 9 8 8 8 4 2 2 2 4 8 5 5 1 4 8 14 15 14 12 11 10 8 4 3 3 3 3 3 3 2 2 4 4 5 6 4 2 3 5 5 4 7 5 1 5 7 6 3 2 5 5 2 3 3 9 16 18 18 18 22 23 19 17 16 16
17 19 20 22 22 22 22 22 21 20 19 18 17 17 17 15 14 13 11 9 8 9 9 8 7 7 7 4 1 1 1 6 6 6 7 4 4 10 15 16 15 13 12 13 10 5 2 3 5 4 3 4 2 3 6 6 6 6 5 4 3 5 5 5 7 5 3 2 4 4 4 5 7 8 4 3 8 16 16 17 18 18 19 18 16 16 15 16
17 19 20 22 23 23 23 22 22 21 20 18 18 18 17 15 13 12 11 9 8 7 8 8 6 5 6 4 1 2 3 4 5 6 7 5 6 12 17 17 17 15 12 14 11 5 2 4 6 5 3 4 2 3 8 6 2 3 6 6 5 5 5 5 5 3 1 1 2 5 4 2 4 8 5 4 14 18 16 18 18 17 16 14 14 15 14 14
17 19 20 21 23 23 23 22 22 22 21 19 18 17 15 13 12 12 10 9 7 6 7 7 5 4 4 3 1 1 3 2 4 6 7 6 7 13 17 16 18 17 12 11 11 8 7 7 6 4 3 4 3 3 6 6 5 7 10 8 7 6 4 4 2 1 3 1 1 3 4 2 1 5 4 6 16 18 17 18 16 16 14 13 14 13 14 14
18 19 20 21 23 24 24 23 22 22 21 18 17 16 13 12 11 11 10 9 7 6 6 5 4 4 3 3 3 2 3 4 2 4 6 5 7 13 17 16 17 19 14 8 12 16 14 13 8 4 4 3 2 2 3 8 12 11 12 10 6 5 5 4 1 3 1 2 4 2 4 2 3 4 6 9 16 18 18 17 15 15 12 13 14 12 12 13
18 19 20 21 23 24 24 24 23 22 20 17 16 15 12 11 10 10 9 8 7 6 5 3 4 4 3 2 4 7 5 2 3 6 7 4 3 7 12 15 16 19 18 9 13 21 18 15 8 4 4 2 3 3 5 8 12 10 9 8 4 4 4 2 1 3 2 2 6 4 4 4 4 5 9 13 15 16 18 17 15 13 11 12 13 10 9 12
18 19 20 22 23 24 25 24 23 22 20 17 15 13 11 10 9 9 8 7 7 7 6 2 2 3 4 1 8 9 9 10 11 10 12 6 3 4 8 13 13 15 17 14 16 19 14 13 8 6 5 2 2 1 6 7 8 7 6 5 3 4 2 3 2 3 3 1 6 4 4 1 2 4 9 13 15 17 17 15 13 11 11 11 11 9 8 11
18 20 21 22 23 24 25 24 23 22 19 17 14 12 10 8 8 8 7 6 5 4 3 2 2 2 3 5 13 10 10 13 12 11 15 11 7 6 8 12 13 13 14 16 18 15 13 16 11 7 3 4 2 2 7 4 3 5 5 3 2 4 1 3 2 2 3 2 5 4 4 4 4 3 7 13 16 17 15 13 13 11 11 10 9 8 7 9
18 20 21 22 24 25 26 25 23 22 19 17 14 11 9 7 7 7 6 4 3 2 1 2 0 1 1 7 12 10 8 9 9 12 15 15 12 7 10 14 14 15 16 16 17 16 16 15 9 4 2 4 6 5 5 2 2 2 4 1 1 3 1 4 3 2 3 3 4 5 3 3 4 4 6 12 14 15 14 13 12 11 12 10 7 8 7 7
19 20 21 22 24 25 26 25 23 22 20 17 14 11 9 7 7 7 5 3 2 2 0 2 0 1 1 5 8 9 7 7 10 12 12 15 14 8 12 16 13 16 17 17 19 18 15 10 5 3 3 4 6 5 3 3 1 1 2 3 2 3 3 2 3 3 4 2 2 3 3 3 3 4 5 10 13 14 13 12 13 13 12 9 7 8 8 7
19 20 21 23 24 25 25 25 23 22 20 17 15 12 9 8 9 6 3 2 2 2 2 1 2 1 3 7 8 7 6 9 12 10 10 14 15 11 13 11 9 13 14 15 16 13 9 5 3 3 1 3 5 6 4 1 2 1 3 3 2 3 5 2 1 2 5 2 2 2 3 3 3 4 6 9 12 13 12 12 13 13 10 7 7 9 8 8
20 21 22 24 25 25 25 24 23 21 20 18 16 15 10 8 9 4 1 1 1 1 2 2 2 1 4 6 5 7 8 10 11 8 8 13 16 15 14 9 6 7 6 7 8 5 3 3 1 1 1 2 4 5 4 4 5 5 3 3 2 3 5 4 2 1 4 4 3 1 3 2 2 4 5 7 11 11 11 12 13 12 10 8 8 9 8 8
20 21 23 24 25 25 25 24 22 21 20 17 15 14 9 5 4 0 2 2 2 1 3 2 2 0 4 6 8 11 8 10 10 7 9 13 15 14 14 11 5 4 3 1 3 2 3 1 1 2 3 3 4 6 7 7 9 10 7 6 6 5 3 3 3 4 3 4 1 4 3 4 2 4 2 2 7 9 9 10 11 11 10 8 8 8 7 8
20 22 23 24 25 25 24 23 22 21 20 18 17 12 5 2 3 2 1 2 4 6 6 5 6 2 7 8 9 10 3 6 5 5 9 12 10 7 8 7 3 3 3 3 3 3 3 2 1 5 6 6 5 7 9 7 9 10 6 6 7 6 4 3 3 4 3 3 3 3 3 6 4 3 5 3 3 7 8 10 11 11 11 9 9 10 8 7
21 23 24 25 25 24 24 22 21 20 20 20 17 8 0 1 1 3 2 3 9 12 10 9 10 8 11 11 11 13 3 1 2 2 8 8 6 3 3 4 4 4 4 4 3 2 3 4 5 8 9 8 8 9 7 4 8 9 6 6 6 3 3 4 4 5 5 3 3 4 3 4 6 7 9 6 2 4 5 8 11 12 11 8 10 12 9 7
22 23 24 25 25 24 23 21 19 19 18 18 12 2 4 5 4 4 3 4 10 10 11 11 9 10 15 18 20 17 4 2 4 4 5 4 5 4 3 2 4 4 4 4 3 0 2 5 7 9 9 8 9 9 5 5 9 8 5 5 4 3 4 4 3 5 4 3 3 4 5 6 5 6 8 5 1 1 1 4 7 11 12 9 10 12 9 8
23 24 25 25 25 25 22 20 19 16 15 14 8 5 8 12 15 14 5 3 9 7 7 8 7 6 10 14 14 10 2 2 3 5 5 6 4 5 4 3 4 4 3 5 4 3 3 6 9 10 7 7 10 10 6 5 6 5 5 4 4 6 6 1 3 7 4 1 4 6 4 2 3 5 6 4 1 0 2 3 1 5 9 9 11 11 9 10
23 24 25 25 26 23 20 20 14 9 13 14 12 12 14 19 23 18 5 1 6 6 5 9 7 4 9 10 6 6 2 3 4 4 6 8 4 3 4 4 4 3 4 6 6 5 7 9 9 9 7 8 10 10 7 5 5 6 8 6 6 10 7 3 7 9 5 3 5 8 3 1 3 5 6 4 1 1 2 3 3 1 4 6 10 10 10 11
23 24 25 26 26 22 20 16 4 6 16 15 14 16 19 23 24 13 1 1 4 4 4 7 4 5 11 10 6 6 3 3 5 6 8 10 7 3 3 3 4 4 7 7 6 5 10 10 6 7 8 9 9 9 9 6 5 6 9 9 11 14 8 10 13 9 4 2 5 7 4 2 5 7 8 4 1 2 1 1 2 2 1 4 8 8 9 12
23 24 25 26 25 21 16 7 3 12 16 11 13 19 20 22 19 5 2 3 3 4 2 2 2 5 8 6 6 3 3 2 7 8 9 11 9 4 2 2 2 5 7 5 4 3 8 8 6 8 10 9 9 9 10 7 6 5 9 9 11 13 12 16 17 9 3 3 5 7 4 2 4 8 9 5 4 5 2 1 4 3 2 4 6 6 9 12
23 24 24 25 24 20 9 3 10 14 8 8 16 21 21 22 17 3 2 4 3 3 1 1 1 3 5 6 6 5 2 4 4 5 10 12 8 5 2 3 1 4 3 2 4 4 6 7 6 8 9 8 7 8 9 7 6 4 7 13 14 13 14 17 14 6 3 3 4 4 2 3 3 6 8 6 5 6 5 4 5 4 4 4 5 6 9 12
23 24 23 23 23 17 8 8 13 9 5 12 20 20 20 23 16 3 4 2 3 2 1 2 0 2 2 5 6 3 3 3 2 3 9 12 8 5 3 5 3 5 4 2 5 6 5 7 8 9 8 7 6 7 8 7 5 5 12 19 17 14 14 14 10 4 3 5 5 5 3 2 2 3 5 6 6 8 9 9 8 6 6 5 5 6 9 12
23 24 23 22 20 14 9 10 10 7 9 17 20 19 20 19 11 4 4 1 2 2 1 0 1 2 1 2 2 1 1 1 1 3 3 7 6 3 4 5 4 5 6 5 7 7 6 7 9 8 6 7 9 10 8 7 4 5 12 14 9 8 8 8 6 4 4 3 4 9 7 3 2 3 5 6 8 12 11 9 9 8 7 6 5 7 10 11
23 23 23 21 16 10 10 12 11 7 11 18 20 20 18 11 5 4 2 1 1 3 0 1 2 1 4 1 2 1 1 1 2 1 1 2 2 1 2 2 2 3 5 5 7 8 9 6 5 6 6 8 9 8 6 7 10 10 10 11 10 7 6 5 3 3 3 1 3 10 11 4 1 3 7 7 8 11 11 8 8 8 7 6 5 6 9 10
23 22 22 20 13 8 6 8 8 6 11 19 21 18 11 5 4 4 0 1 1 2 1 0 2 2 6 4 1 2 2 2 2 1 1 2 1 1 1 2 1 2 4 5 5 5 7 6 4 4 6 6 6 6 0 5 12 12 8 8 8 4 6 6 4 4 1 2 3 7 10 5 2 3 7 8 5 7 11 11 11 12 9 7 6 6 9 10
21 21 20 17 13 12 10 7 7 10 14 19 18 9 4 4 3 1 2 2 2 3 2 3 4 3 5 6 3 4 2 1 3 3 3 3 1 2 2 2 2 1 3 3 3 4 4 6 6 5 5 6 6 6 1 5 9 8 5 7 7 3 3 2 1 2 1 3 3 3 8 4 4 4 6 10 8 8 12 12 12 14 11 9 7 6 7 8
20 18 16 14 13 14 15 12 13 14 16 17 11 4 4 4 1 3 2 3 3 3 3 4 5 5 6 5 3 4 2 1 1 2 4 3 2 3 4 6 6 3 2 2 3 3 3 5 5 3 4 3 6 5 2 3 5 7 6 6 5 4 2 2 3 0 2 4 4 3 7 2 4 3 3 9 11 11 12 13 13 14 14 11 8 6 7 8
18 14 12 11 13 15 15 13 14 15 15 12 6 4 4 2 3 3 3 4 4 3 1 3 6 5 3 2 3 3 3 2 1 2 4 2 2 2 4 6 6 5 1 2 3 2 1 3 4 4 4 2 3 5 6 5 4 5 7 6 6 6 4 4 4 2 2 2 2 2 4 3 2 2 3 4 8 10 10 10 12 12 12 11 6 5 6 8
16 12 11 11 12 13 12 11 13 12 9 6 4 4 3 1 3 3 3 4 3 4 5 2 5 4 2 2 2 2 3 1 3 2 3 4 2 4 3 4 5 5 3 0 3 2 3 4 6 5 5 6 5 4 5 6 3 2 4 6 5 6 5 3 3 4 4 3 1 1 3 3 3 2 4 3 3 8 9 8 10 11 12 11 7 5 5 7
14 11 10 10 11 11 8 9 10 6 0 4 5 3 1 3 3 2 3 4 4 4 5 5 3 4 1 2 4 5 4 1 4 3 2 3 3 3 4 3 4 6 6 4 2 1 1 4 6 4 3 7 6 4 5 6 2 1 2 4 5 3 7 6 1 1 4 3 2 3 2 3 1 1 5 5 4 7 10 10 11 12 13 13 9 6 5 6
15 10 7 9 12 10 7 9 6 4 4 5 4 0 3 3 4 4 4 6 6 3 4 3 1 2 1 1 2 2 3 3 3 3 1 1 2 3 3 4 4 7 8 5 2 2 3 3 6 2 5 8 3 6 5 5 6 3 0 3 2 3 4 5 3 2 3 2 2 3 2 2 1 1 4 4 5 5 8 11 12 12 13 13 12 8 5 3
15 8 7 11 11 9 7 7 5 7 5 3 1 2 4 3 4 5 5 7 8 3 4 1 1 2 2 1 1 3 1 2 1 2 1 1 2 3 1 2 3 5 6 6 2 1 4 1 7 3 4 6 1 7 2 2 2 5 3 2 3 2 1 2 2 2 2 1 2 2 2 1 3 3 3 4 6 6 8 10 11 13 13 13 12 9 5 5
10 5 4 6 5 10 11 8 7 5 5 2 1 3 3 4 6 6 7 7 5 2 2 1 1 1 1 3 3 2 1 1 1 0 2 2 2 3 2 1 2 7 4 7 5 3 2 2 4 6 3 1 2 4 2 3 2 2 2 3 2 3 3 2 2 3 4 2 2 1 2 2 4 4 6 9 9 9 10 9 11 13 12 12 11 9 6 7
4 2 3 4 1 10 15 10 5 4 2 1 2 3 3 5 7 9 10 9 4 1 1 2 1 2 1 3 4 2 2 3 3 2 2 2 1 4 4 0 2 8 7 2 3 2 1 3 2 6 7 2 0 1 5 5 3 2 2 2 1 0 2 2 1 2 4 4 2 1 1 4 4 2 5 9 9 8 9 8 8 9 10 10 9 7 6 8
3 2 4 6 2 15 15 7 1 1 1 2 2 4 5 5 6 9 10 8 2 2 2 0 1 1 1 2 1 2 1 2 3 2 1 0 1 1 4 3 4 6 5 5 4 1 1 2 1 3 4 2 4 5 5 6 6 6 4 3 3 2 3 3 1 1 2 4 4 4 2 5 4 3 4 6 7 8 9 10 8 8 9 8 6 5 5 5
2 0 4 5 8 20 13 3 3 2 1 3 3 5 6 4 6 8 6 5 4 1 1 2 1 0 1 2 0 1 1 1 2 1 2 2 3 4 4 5 5 3 4 2 3 1 2 3 2 2 2 2 8 9 4 5 6 5 4 4 4 4 4 5 3 3 2 3 2 3 1 5 4 2 4 4 5 6 8 10 9 7 8 9 8 6 5 4
2 3 7 5 8 14 7 2 3 1 2 5 5 6 6 3 5 5 3 5 4 2 3 3 1 2 1 1 2 1 2 1 2 1 1 1 2 3 4 5 4 3 5 1 4 3 2 2 3 3 4 4 7 7 5 2 1 2 2 2 4 4 4 5 5 3 4 4 2 3 0 5 3 1 2 3 4 4 5 8 10 7 6 9 11 9 7 6
2 4 6 8 8 6 2 1 3 3 4 5 5 6 5 4 4 2 2 4 3 2 3 2 2 2 1 0 2 0 2 2 1 2 1 0 1 2 5 4 3 3 2 2 1 2 2 2 3 3 4 6 7 7 7 7 4 1 3 4 2 4 4 3 2 4 3 4 5 5 2 5 3 1 1 3 5 5 4 6 8 8 7 8 9 8 7 7
3 2 4 8 7 4 3 4 4 3 5 5 6 7 6 4 3 1 3 3 3 2 2 2 3 4 3 2 3 1 1 2 1 3 3 1 2 3 6 4 3 2 1 2 2 2 2 2 3 4 3 1 2 2 2 3 3 2 4 6 6 5 3 1 2 4 2 3 4 5 4 4 2 2 2 2 5 6 5 5 6 6 7 7 7 8 8 8
3 1 3 6 3 2 3 2 3 3 4 3 5 6 4 3 3 2 2 2 3 3 2 2 3 5 4 4 4 3 5 3 3 4 4 3 3 3 5 6 2 1 2 2 4 4 4 2 2 5 5 4 4 5 5 2 3 5 6 8 7 5 3 3 4 3 4 5 3 4 5 4 3 5 5 4 6 6 5 6 6 6 7 7 6 7 8 8
1 1 1 3 4 2 3 4 1 2 3 2 3 4 3 3 4 2 0 1 2 3 2 3 5 5 5 5 3 3 5 5 5 5 3 3 2 4 7 6 3 4 5 3 4 4 4 2 2 3 4 4 5 4 5 6 7 6 6 7 7 7 7 6 4 5 6 7 3 6 7 9 8 8 7 7 6 6 6 6 7 7 6 6 6 7 8 9
0 2 1 3 2 2 2 4 5 4 6 5 3 3 3 5 5 2 0 1 3 4 2 3 5 5 5 5 3 2 4 5 5 5 4 4 3 5 8 6 4 8 7 5 4 4 5 1 3 1 2 3 4 8 9 10 9 9 9 8 8 10 9 6 1 4 7 7 5 7 8 8 8 8 7 7 6 5 6 6 5 6 6 5 7 7 7 7
1 2 3 3 2 3 3 7 6 5 5 4 2 2 2 4 6 3 1 2 3 3 2 2 4 4 7 6 4 2 2 3 3 4 3 4 4 3 5 5 5 7 7 5 4 3 5 1 3 2 3 5 9 12 9 11 11 11 13 13 11 9 7 6 5 2 3 4 3 7 8 2 2 5 5 3 3 3 4 5 5 6 6 6 6 7 6 6
1 2 3 3 4 4 4 6 4 5 5 3 2 3 2 2 5 3 2 3 2 2 2 3 4 3 5 7 6 4 1 3 3 3 2 3 5 2 2 2 2 6 6 3 3 2 4 1 3 3 4 4 8 9 5 9 12 11 13 14 13 11 9 7 6 5 5 7 9 11 9 4 3 3 6 5 4 4 5 6 6 5 6 6 6 6 6 7
3 5 3 1 3 4 4 4 4 4 5 3 2 3 2 4 4 1 4 2 3 2 1 2 4 4 3 6 7 5 5 2 4 4 2 2 2 1 1 2 1 4 5 3 2 3 3 1 2 5 4 2 5 6 2 4 10 12 12 13 12 10 8 6 6 6 4 6 10 10 6 1 1 5 8 5 4 5 5 5 6 5 5 6 6 6 6 6
7 5 3 0 2 3 3 4 5 4 3 4 3 3 3 4 1 4 3 4 4 5 3 4 6 4 4 6 4 4 5 4 4 5 2 2 1 1 0 2 3 3 2 1 2 2 2 2 1 3 3 2 4 5 2 1 6 7 6 8 8 7 7 7 9 11 8 3 5 5 4 5 5 7 8 5 5 5 4 4 5 5 6 6 5 6 6 5
Wind_Direction
4 2 0 0 1 2 0 357 354 352 352 347 345 343 340 341 340 337 331 326 326 324 326 327 330 333 335 343 343 336 330 322 318 308 259 259 257 216 175 154 169 193 197 206 205 192 175 199 222 218 217 235 216 233 234 206 134 97 127 141 212 195 181 199 191 178 173 212 141 144 207 204 157 210 227 131 71 136 140 131 127 115 111 120 126 131 135 140
6 4 1 359 359 359 359 358 356 355 355 352 348 344 341 340 338 337 331 325 324 323 327 329 334 338 343 351 348 339 331 323 312 287 257 254 252 213 193 175 163 173 184 194 208 199 176 198 215 208 199 211 207 217 232 175 131 130 177 172 231 205 183 197 192 190 174 178 159 130 155 216 182 206 191 131 130 142 135 129 126 117 118 125 131 136 141 147
8 7 4 0 358 356 355 354 354 354 355 356 352 345 340 337 335 336 335 330 326 325 328 329 335 341 351 355 351 345 329 325 306 265 264 243 228 214 197 188 171 170 187 193 211 208 203 229 231 208 196 234 231 216 230 181 148 173 157 180 247 220 172 178 194 194 182 182 155 124 137 188 249 257 158 136 136 146 143 139 134 130 135 137 140 145 147 149
7 6 3 2 359 356 354 352 352 351 352 355 353 345 337 331 329 330 333 331 326 325 326 328 336 344 357 355 350 348 329 329 301 240 112 59 220 199 190 185 173 179 202 213 225 221 232 272 288 261 225 239 245 215 225 195 173 216 127 182 264 248 152 180 209 180 153 209 155 117 124 143 268 283 165 141 124 141 150 146 141 139 144 144 147 148 146 145
6 4 3 2 359 356 354 352 350 349 350 351 351 344 335 329 324 323 327 327 323 321 324 327 335 347 356 351 350 346 343 54 267 238 162 48 133 185 187 181 176 186 206 224 234 234 248 265 277 272 244 236 232 218 222 164 135 103 95 127 316 307 83 238 212 163 151 183 118 93 115 155 220 270 208 135 126 153 154 143 141 141 145 145 145 142 141 144
2 3 3 2 360 357 354 351 349 348 348 348 348 343 336 330 323 321 323 324 319 317 323 326 336 354 354 355 10 354 23 143 271 248 191 74 98 172 183 179 177 188 206 219 224 231 251 239 208 226 239 242 225 200 166 144 133 116 79 54 20 23 74 46 142 151 161 139 117 109 114 188 187 189 189 148 149 167 144 138 141 140 139 139 137 137 141 147
358 359 360 1 0 357 354 352 349 347 347 346 346 343 339 335 330 323 322 323 317 315 319 326 344 359 358 16 46 35 93 262 274 230 207 188 114 159 172 177 178 184 201 206 202 208 231 214 210 224 239 270 245 145 118 108 103 106 104 102 63 70 83 62 101 118 79 112 126 126 120 211 172 156 171 215 185 144 138 136 138 137 134 135 136 141 145 149
352 353 354 358 358 356 354 351 349 347 346 345 345 345 342 340 338 329 328 326 316 315 315 329 357 3 3 25 28 15 205 252 249 193 204 205 153 162 166 173 181 187 197 199 194 184 209 236 235 232 234 253 247 142 130 95 72 99 118 140 114 87 88 72 89 82 19 85 127 145 178 204 175 155 152 211 151 134 137 137 135 137 135 136 141 145 150 157
347 348 350 354 354 355 353 349 349 347 346 347 346 345 342 343 342 337 336 334 326 320 321 337 2 14 14 8 355 352 287 239 189 187 206 204 178 172 172 174 183 190 197 204 204 193 219 233 225 227 226 245 261 176 159 122 80 131 124 124 107 94 91 75 74 88 202 227 187 179 170 145 167 158 143 150 138 132 137 136 136 140 140 143 144 150 158 164
344 346 349 350 351 352 349 349 349 347 347 347 347 345 345 349 349 345 341 341 338 323 329 349 8 27 22 357 69 18 286 202 179 210 204 202 186 176 181 183 186 190 194 201 205 208 219 225 237 277 281 269 286 220 183 143 130 122 109 95 84 92 90 75 59 231 215 244 40 143 118 49 181 141 128 139 138 134 136 138 141 144 145 148 148 157 165 166
344 345 347 347 348 349 347 347 347 347 346 345 347 347 350 356 354 351 348 348 342 326 336 356 26 40 33 51 108 206 227 160 182 240 207 202 195 186 188 189 188 190 189 190 210 215 220 236 256 304 295 295 343 21 66 112 120 120 110 87 67 83 86 92 151 272 284 21 356 53 98 19 18 111 148 148 141 137 137 142 146 147 149 150 155 164 167 171
345 345 345 345 344 346 346 345 345 345 345 344 350 351 353 358 356 355 353 354 347 336 340 354 53 53 29 56 197 231 245 214 297 271 231 209 192 196 191 188 189 193 191 184 220 223 224 243 261 277 277 339 37 60 75 109 117 115 106 96 76 72 65 50 318 320 21 23 334 17 88 17 23 138 156 145 142 139 139 145 149 151 153 154 164 167 170 174
346 344 343 343 342 344 344 343 343 343 343 345 350 353 353 352 355 357 354 358 351 338 342 357 53 38 35 324 241 255 285 293 304 272 232 212 151 163 185 191 194 201 201 201 221 229 236 256 267 262 262 59 29 119 117 122 111 96 82 98 107 80 26 336 348 348 30 26 340 26 119 273 283 165 154 147 144 142 141 148 152 154 157 162 170 168 175 174
346 343 342 342 341 343 341 341 341 341 341 343 349 354 351 346 347 352 352 357 355 345 353 16 32 65 87 266 272 288 296 293 296 255 223 213 184 165 186 199 204 211 214 219 231 246 262 269 271 264 249 117 130 124 118 110 86 102 88 66 92 110 222 315 333 360 22 328 347 43 136 207 236 201 166 154 146 145 145 152 157 156 162 168 169 167 176 170
345 342 341 341 341 341 340 339 339 339 339 340 347 352 348 340 332 338 348 354 346 320 330 6 314 102 31 280 283 301 298 285 272 241 226 212 192 180 198 202 211 219 223 228 241 259 267 271 275 255 234 135 127 114 115 82 28 115 112 67 12 107 147 308 297 80 60 297 350 54 142 191 218 212 175 156 148 147 148 158 160 158 169 169 163 167 167 161
343 342 341 340 340 340 339 338 337 336 336 338 343 348 344 327 310 316 325 323 311 278 325 37 184 139 349 286 299 310 281 253 251 247 241 218 200 200 204 203 216 224 228 235 243 256 265 274 271 207 166 128 129 122 100 71 14 302 106 145 169 117 138 289 292 120 115 244 328 58 154 175 210 216 181 157 152 149 152 164 160 161 173 164 159 164 155 150
342 342 341 340 339 339 338 336 336 333 332 336 340 341 334 310 297 301 313 323 309 266 210 301 324 81 260 281 305 309 263 242 249 247 240 223 214 212 197 194 222 229 233 243 246 254 263 265 237 211 133 122 139 131 114 127 213 290 68 122 150 130 148 165 270 157 117 135 297 15 138 188 220 181 167 160 153 153 160 162 160 166 169 155 156 161 151 145
342 342 341 340 339 339 338 335 334 331 329 333 336 332 323 303 297 294 216 142 85 285 266 276 322 39 274 285 286 279 272 252 239 221 222 222 217 211 194 186 213 221 229 250 253 242 240 269 186 189 303 151 140 134 155 197 188 172 146 134 139 148 155 162 185 156 106 141 254 332 130 216 227 142 157 168 157 158 165 160 160 167 162 151 153 160 153 145
341 341 340 339 339 338 337 334 332 329 326 326 328 326 318 313 317 278 158 140 103 293 284 239 171 113 288 283 275 276 262 226 217 202 209 214 213 208 195 196 198 178 169 223 266 226 188 329 67 164 257 216 168 166 188 205 187 177 169 150 153 157 141 143 106 51 82 133 32 2 351 287 207 134 127 171 164 164 165 158 158 165 160 151 153 163 155 150
341 340 340 339 339 338 336 333 331 327 324 322 331 339 337 9 15 7 127 167 205 234 260 234 186 226 286 277 291 300 252 192 208 186 193 201 203 201 192 195 174 159 173 173 235 252 167 133 191 204 226 227 206 200 207 216 189 166 151 148 156 153 125 127 113 102 124 110 74 43 335 305 326 10 345 338 172 168 159 156 160 164 163 156 158 165 157 159
340 340 340 340 338 338 336 334 331 325 324 325 335 351 296 159 56 323 327 245 237 229 239 239 202 219 257 257 280 292 280 119 330 219 211 207 177 169 213 181 151 194 216 187 218 272 154 172 220 220 223 226 230 232 225 199 171 154 141 149 149 143 123 125 138 147 149 131 135 141 159 259 310 326 318 337 102 160 154 156 164 165 164 160 161 166 162 164
341 340 339 340 338 338 336 334 329 325 328 329 334 336 245 269 275 308 351 290 275 235 224 242 223 228 253 258 263 264 252 73 324 285 227 192 152 174 220 151 144 212 229 193 209 280 178 218 230 225 225 231 241 245 231 172 166 156 139 144 138 127 104 85 120 141 150 155 135 130 155 205 245 275 293 324 63 158 82 136 166 171 167 159 163 169 164 161
341 339 340 340 337 338 337 333 329 328 336 334 317 256 282 307 305 309 335 298 289 265 219 236 230 225 254 266 255 240 197 148 247 274 211 164 155 181 171 152 176 213 215 184 181 163 198 230 226 222 220 230 247 250 233 189 172 159 143 145 150 159 152 145 166 146 139 135 125 135 150 212 261 273 274 285 253 247 33 46 22 181 169 161 168 170 160 162
340 340 341 339 337 339 336 331 329 338 343 327 295 283 305 320 311 304 320 284 282 283 236 220 214 209 238 255 230 194 219 198 197 248 204 160 147 168 160 178 189 210 224 198 179 180 226 235 215 211 209 219 243 251 237 191 170 185 178 168 162 173 179 149 146 139 105 63 123 128 104 319 255 249 250 262 318 336 16 29 354 250 157 156 172 173 159 163
340 340 340 339 338 338 335 331 328 349 338 312 290 309 324 327 319 302 259 10 284 290 257 212 200 217 230 231 202 189 193 202 213 219 192 168 164 161 179 184 166 210 230 213 189 199 242 244 203 201 211 214 235 248 238 202 166 195 203 188 165 168 158 120 134 138 113 158 181 152 132 240 225 221 231 244 234 246 3 33 286 276 130 156 176 181 166 163
340 339 339 339 337 336 337 334 304 330 328 299 302 323 324 327 329 293 151 28 302 282 277 185 162 202 214 199 178 147 86 252 239 206 192 194 183 152 200 224 164 211 217 207 203 212 241 235 197 208 216 210 223 241 241 207 159 197 211 181 151 149 139 138 149 149 142 188 197 177 161 177 208 219 223 217 205 231 252 221 251 257 192 184 178 181 174 166
339 338 339 339 336 337 341 298 309 321 315 303 324 330 324 331 338 301 117 36 298 281 251 270 18 184 192 183 165 101 94 260 272 194 193 200 185 125 194 254 246 219 212 169 220 238 229 220 203 212 220 217 216 232 239 200 166 215 185 153 148 148 147 155 157 148 141 112 130 180 156 113 197 222 211 195 199 229 238 222 238 243 217 206 188 184 181 171
338 336 337 338 335 335 328 298 309 310 294 320 332 336 333 337 341 3 96 65 267 294 243 217 288 204 204 183 165 113 193 220 351 237 200 190 179 126 183 239 234 245 263 192 231 255 224 207 204 204 213 224 218 229 227 183 175 212 164 155 162 159 153 155 145 125 133 108 132 197 180 123 236 234 180 176 202 223 226 217 219 223 217 212 196 188 185 175
337 335 332 334 332 328 322 305 297 293 318 335 339 336 334 337 350 61 90 60 239 260 255 136 168 218 160 164 188 265 253 127 101 262 212 185 193 141 182 222 226 268 271 210 226 259 243 213 201 194 197 217 230 237 218 167 163 181 150 139 127 120 129 138 128 115 118 108 174 197 189 172 252 216 163 170 211 218 216 211 211 213 211 209 199 187 183 176
334 332 328 328 324 316 316 303 285 288 325 337 337 333 334 342 31 75 45 359 230 248 215 35 291 141 109 113 287 258 214 205 194 225 12 204 216 99 187 213 199 263 278 248 242 247 247 241 208 196 200 208 219 228 212 167 148 130 123 106 80 62 52 45 24 69 93 354 217 192 191 189 250 208 183 187 209 206 199 200 203 206 209 207 202 187 180 173
331 329 322 319 312 291 292 293 284 291 312 325 333 338 344 3 76 80 288 242 270 264 131 201 258 122 124 148 245 237 211 221 188 142 275 254 346 52 13 353 288 286 309 291 279 262 257 258 246 231 216 197 199 214 215 121 131 116 114 114 91 45 28 33 346 357 69 248 249 187 181 181 250 231 203 206 202 177 188 198 194 194 201 208 206 190 182 173
329 325 315 310 299 270 250 250 286 299 305 322 339 354 29 40 39 111 240 302 299 228 192 187 198 180 161 158 197 221 191 191 198 180 193 195 185 182 173 190 193 356 323 279 298 306 276 244 244 260 233 185 182 217 19 89 120 109 114 117 93 52 29 62 275 320 260 256 307 173 163 177 255 241 204 208 206 181 189 197 191 186 189 201 208 189 180 173
329 321 311 303 289 268 256 264 284 293 306 329 350 32 81 63 349 241 263 303 262 223 193 163 169 183 166 151 214 220 148 296 233 187 197 170 146 209 217 217 190 156 249 280 339 320 309 284 264 271 264 192 141 169 164 131 133 127 147 139 109 123 129 157 193 293 258 271 340 126 159 196 276 264 206 203 207 198 190 191 188 184 182 191 207 194 177 170
330 321 314 302 287 273 266 272 281 288 309 336 14 68 63 67 240 256 261 249 250 274 298 147 151 163 152 146 221 174 109 297 273 164 193 145 77 232 250 254 216 172 172 337 327 223 180 303 266 224 244 235 134 150 161 147 124 147 169 149 140 162 159 167 178 169 203 228 23 94 172 201 210 251 272 234 213 194 185 188 182 179 178 178 201 215 182 169
335 325 317 304 288 276 270 275 281 286 311 360 55 67 67 209 270 297 269 263 290 316 330 14 128 124 32 345 316 71 93 222 244 228 206 162 163 222 231 260 227 173 128 58 281 224 170 238 256 240 213 191 177 167 139 106 65 235 158 133 173 190 148 126 164 163 151 145 133 173 219 226 184 230 306 318 184 164 166 177 174 176 176 169 188 227 199 171
341 330 318 302 285 273 270 285 282 264 170 65 55 39 162 215 251 275 274 285 291 307 350 6 68 91 354 340 3 359 17 83 200 220 257 187 190 218 218 249 223 177 164 170 236 281 154 258 279 297 246 206 185 159 132 124 143 286 92 151 224 197 124 118 120 110 101 107 194 203 240 299 335 338 344 23 92 137 155 168 173 178 177 171 181 206 203 179
344 336 312 289 280 266 267 285 268 164 114 77 73 208 238 236 224 232 279 294 293 321 50 32 34 105 195 9 19 311 338 356 194 194 340 336 257 242 222 260 246 200 191 173 213 216 140 285 288 252 235 241 186 116 126 145 143 126 97 211 245 15 84 109 101 32 55 94 236 223 232 288 6 318 332 39 91 132 161 167 172 177 178 178 181 186 185 154
340 337 297 274 261 242 253 267 198 134 89 59 58 249 237 236 229 232 269 292 303 346 80 77 302 142 141 92 253 252 327 4 275 192 90 44 272 266 237 273 273 243 210 164 161 260 120 359 296 271 215 245 59 88 104 319 93 137 199 216 113 77 30 79 113 139 103 143 262 294 305 253 198 210 228 179 164 170 172 169 173 178 181 182 179 174 161 108
338 351 299 269 229 211 217 206 159 107 55 46 279 268 244 258 271 277 288 294 299 16 73 312 296 102 118 135 173 263 281 230 274 141 161 165 237 282 299 238 299 322 290 164 168 261 102 112 283 314 340 290 29 73 169 281 351 143 265 324 82 142 166 162 156 146 136 165 228 306 344 263 225 208 196 195 191 180 174 173 176 180 182 184 178 167 138 111
350 26 280 303 288 201 193 174 128 71 61 192 224 252 284 291 290 301 303 296 278 137 100 292 352 37 24 134 163 217 212 214 218 173 192 196 221 294 305 343 351 327 319 114 138 262 22 97 240 310 346 39 73 195 181 183 155 157 262 305 307 138 118 145 178 133 125 143 173 156 290 266 244 201 199 204 195 180 176 175 177 179 179 179 170 150 117 116
16 32 285 322 220 178 162 141 123 100 186 257 258 258 283 285 285 299 303 307 313 151 151 138 74 93 73 88 180 234 192 217 213 154 133 221 117 281 287 322 341 321 340 28 35 24 41 100 154 304 345 25 268 258 201 176 161 154 182 201 187 166 118 114 222 286 107 131 162 154 191 265 251 189 214 208 181 173 174 173 176 176 171 166 146 129 118 122
58 227 291 344 164 164 139 105 246 154 201 256 241 248 272 277 280 294 309 348 9 37 62 28 12 15 50 64 344 249 84 345 289 105 155 199 140 169 259 311 330 350 66 42 306 317 113 113 88 306 284 261 274 278 254 211 189 154 177 195 165 147 127 127 192 235 111 111 134 117 155 267 265 195 213 206 169 164 167 170 172 168 163 162 159 151 143 137
66 270 278 300 191 168 121 26 280 347 249 249 248 253 269 277 274 286 327 7 3 7 13 1 17 36 43 64 33 25 75 34 323 102 183 239 146 189 268 324 348 31 66 41 298 334 60 79 51 326 304 312 304 315 352 341 172 136 243 220 154 164 165 154 175 172 132 146 135 83 245 267 275 240 206 175 155 145 147 162 164 159 157 162 169 167 151 145
329 273 269 282 247 205 129 186 253 285 264 273 286 277 285 283 261 258 25 8 344 9 18 350 17 16 285 10 48 81 128 94 345 11 74 232 264 278 303 335 46 50 56 187 254 349 10 42 68 46 358 349 343 352 5 359 10 47 290 291 242 222 203 165 120 86 116 194 156 124 213 261 273 247 201 143 146 146 145 160 160 157 159 163 168 167 153 146
312 263 270 290 268 213 192 187 182 234 275 294 290 291 304 300 298 62 71 19 334 6 20 309 344 357 321 6 32 340 45 93 5 357 15 353 336 323 322 350 70 85 266 187 138 83 75 77 91 95 83 45 2 340 313 312 325 315 319 332 328 309 287 225 123 106 153 205 153 143 207 254 278 222 210 158 152 156 152 149 149 153 160 162 162 161 157 154
360 328 287 309 308 196 227 235 155 195 259 279 275 283 291 288 312 9 67 28 339 360 4 294 342 9 356 7 31 9 5 34 63 40 22 8 357 297 311 349 41 265 307 57 83 84 88 63 86 128 148 182 194 224 246 277 327 329 347 352 350 354 21 90 120 163 185 167 186 218 175 165 217 214 200 192 175 166 151 144 153 158 157 155 153 154 156 157
57 267 288 345 327 311 324 320 302 224 239 219 235 270 286 295 294 296 25 38 21 30 22 340 1 21 7 5 34 21 359 14 39 37 6 353 347 308 327 351 11 344 346 35 63 76 87 26 338 140 162 206 203 241 309 2 7 2 8 357 354 16 39 75 132 204 167 132 200 237 158 155 197 203 189 193 190 175 163 161 165 162 154 148 145 146 150 153
181 254 330 22 315 284 351 305 281 280 267 243 227 252 291 310 305 298 359 29 36 38 45 349 354 35 51 46 66 25 3 23 25 7 354 351 349 348 347 344 355 3 11 30 32 77 105 52 299 347 360 336 353 355 12 38 32 21 23 9 5 18 29 40 355 219 165 146 204 200 156 164 195 188 182 186 184 181 174 164 150 143 138 132 136 136 136 146
342 312 329 8 317 252 262 273 281 310 291 259 248 257 272 318 315 310 83 79 19 1 60 18 343 37 63 62 86 58 16 59 20 337 330 347 351 12 1 331 329 358 21 29 3 63 102 26 313 10 16 8 17 14 33 65 52 29 21 13 4 3 14 31 25 13 112 104 124 125 110 87 205 172 157 140 138 151 142 125 116 129 132 126 130 129 122 127
5 317 323 346 310 273 268 282 317 348 328 327 318 281 272 313 297 307 49 93 80 340 19 34 346 11 65 64 65 34 346 126 71 336 306 341 347 1 360 304 299 348 10 20 339 33 81 354 316 49 41 17 30 27 49 85 74 49 24 9 1 358 360 14 24 24 56 77 88 93 85 36 345 97 93 79 82 93 101 111 118 123 127 124 121 120 121 123
309 279 298 319 282 298 310 312 354 356 317 309 281 268 309 309 288 12 24 26 84 42 339 77 39 8 32 57 52 2 332 38 35 344 313 297 303 257 244 241 235 357 357 4 349 20 73 31 356 57 53 360 28 25 356 99 78 54 25 2 355 0 354 351 18 21 35 102 106 96 93 145 270 95 93 85 88 93 91 99 104 100 107 118 119 122 130 131
344 303 314 35 251 313 341 327 348 357 279 257 240 225 232 272 294 94 61 339 19 40 42 100 89 53 12 22 17 305 311 328 317 312 289 245 309 57 87 308 6 22 338 329 355 357 101 92 47 72 73 323 7 27 347 37 58 37 359 338 339 358 5 4 18 16 10 61 113 116 143 179 163 127 121 122 107 96 85 83 89 95 103 110 117 122 128 138
Height
812 811 810 809 807 806 805 804 803 802 801 800 799 798 797 796 795 795 794 793 793 792 791 791 790 789 788 787 786 786 785 783 782 782 780 772 769 771 772 774 775 776 777 777 778 780 780 781 781 780 784 785 786 785 782 781 784 793 805 816 821 820 819 813 810 809 807 805 808 811 807 808 809 804 797 795 800 801 803 804 803 804 806 810 812 815 818 821
812 811 810 809 808 806 805 804 803 802 801 800 798 798 796 796 795 794 794 793 792 791 790 790 789 788 787 787 786 785 784 782 781 779 773 767 768 770 771 772 774 775 775 776 777 777 779 781 779 781 785 787 786 782 783 781 783 797 806 814 815 810 808 801 798 797 798 800 802 808 810 806 806 804 797 801 807 804 808 810 807 810 812 813 815 817 820 821
812 811 810 809 807 806 805 804 803 801 800 799 798 797 796 795 794 794 793 792 791 790 790 789 788 788 787 787 786 785 784 782 780 774 766 764 767 767 770 772 773 774 774 775 776 776 778 778 779 782 786 789 786 782 786 782 784 795 802 812 809 799 800 797 794 794 794 795 797 807 811 807 805 801 798 803 808 806 810 811 810 816 816 815 816 817 820 821
812 811 809 808 807 806 805 803 802 801 800 799 798 797 796 794 793 793 792 791 790 790 789 788 788 787 787 786 785 785 783 783 777 767 765 765 765 766 768 770 771 773 774 775 776 776 777 778 780 782 787 791 785 782 787 783 784 794 798 808 803 793 799 798 794 794 795 797 797 804 810 811 808 802 799 802 808 811 808 805 806 812 813 814 816 816 819 821
812 811 809 808 807 805 804 803 801 800 799 798 797 796 795 794 793 792 791 791 790 789 788 788 787 787 787 785 786 784 784 786 775 764 765 765 764 765 767 769 771 773 773 775 775 776 777 778 780 783 787 790 786 785 786 779 781 794 798 799 797 793 799 797 792 793 795 797 799 804 810 812 808 802 799 801 808 810 803 800 802 804 808 810 813 816 819 821
812 811 809 808 806 805 804 802 801 799 799 797 797 796 794 794 792 791 791 790 789 788 788 787 787 787 786 785 785 784 785 785 771 763 765 764 764 765 766 769 770 772 773 774 774 775 777 777 782 787 786 786 786 787 785 777 778 795 801 796 796 795 798 797 792 794 795 797 801 804 807 808 807 804 800 801 804 801 795 796 799 801 804 808 811 815 818 820
812 810 809 808 806 805 803 802 800 799 798 796 796 794 793 792 791 790 789 790 789 788 787 787 787 786 785 785 785 784 785 779 765 763 765 763 765 764 766 769 769 772 772 773 774 775 777 778 783 784 785 787 785 785 783 779 779 793 803 800 798 797 797 796 795 798 798 798 799 799 806 809 809 806 802 802 799 795 794 795 798 802 804 808 812 815 818 820
811 810 809 808 806 805 803 801 800 798 797 796 795 793 792 791 790 789 789 789 788 787 787 786 787 786 785 785 784 785 784 774 762 763 764 763 765 764 766 768 769 771 770 772 772 773 777 779 781 780 786 787 781 784 782 783 789 794 802 800 797 797 797 797 797 800 800 799 799 800 807 808 803 801 802 802 797 794 795 796 799 803 806 810 813 816 818 820
811 810 808 807 806 804 803 801 799 798 796 795 794 792 791 790 789 789 788 788 788 787 787 786 787 786 786 785 785 785 777 766 762 763 763 763 764 764 766 766 768 770 769 771 770 773 777 777 777 776 783 782 777 782 780 786 797 794 796 798 798 799 798 798 799 799 802 801 800 802 805 803 797 797 803 801 795 795 796 799 801 804 809 812 814 816 817 819
811 809 808 807 805 804 802 800 799 797 796 794 793 792 791 790 789 788 788 788 787 787 786 787 786 786 787 785 786 785 770 762 764 763 763 764 763 764 765 765 767 768 768 769 770 772 772 772 771 769 775 777 776 779 777 783 792 789 793 797 799 801 798 800 802 799 800 799 797 800 803 800 794 798 809 802 794 795 799 803 804 806 811 813 814 815 816 818
810 809 808 806 805 803 801 799 798 796 795 794 792 791 790 789 789 788 788 788 787 787 787 787 786 786 786 785 788 782 766 762 765 763 764 764 763 763 764 764 765 766 767 768 768 768 767 767 767 771 777 776 776 780 779 779 784 787 792 798 802 801 800 803 805 800 798 799 797 796 800 799 796 801 808 801 794 796 801 807 807 809 812 813 814 815 816 817
810 808 807 805 804 802 800 799 797 796 794 793 792 790 789 789 788 788 787 787 787 787 787 786 787 786 785 786 785 774 763 764 766 764 764 763 763 763 763 764 764 765 766 766 766 764 766 767 767 778 779 774 781 788 786 779 782 788 790 802 808 803 805 806 803 800 798 802 797 795 806 809 805 806 803 797 796 797 802 808 809 811 812 813 814 814 815 816
809 808 806 805 804 802 800 798 796 795 794 793 791 789 789 788 788 788 787 787 787 787 787 787 786 785 787 784 772 764 762 763 765 765 764 763 763 763 763 765 764 764 765 764 764 762 766 768 769 776 772 774 787 785 782 781 784 791 793 804 811 811 814 806 802 801 800 803 796 798 821 824 811 806 800 796 797 800 805 809 810 812 812 813 814 814 816 815
809 807 806 804 803 801 799 797 796 794 793 792 790 789 789 788 788 788 787 787 787 787 787 787 786 786 787 779 764 761 762 760 763 764 762 763 763 763 764 764 764 765 765 764 763 762 765 766 767 772 769 773 782 778 784 789 790 796 802 807 812 820 822 807 803 806 805 804 795 801 825 826 811 805 800 796 797 801 808 810 810 812 812 813 814 815 816 814
808 807 805 804 802 800 798 796 795 793 792 791 789 789 788 788 788 787 787 787 786 787 786 786 786 785 787 778 762 760 761 760 761 760 761 762 762 763 763 764 765 764 764 764 763 763 764 764 768 775 773 769 776 787 796 799 799 801 811 821 818 821 824 811 804 807 812 809 798 806 824 822 811 805 799 796 797 801 808 811 810 812 812 813 814 814 816 815
808 807 805 803 802 800 798 796 794 792 791 790 789 788 787 787 786 786 787 786 786 786 786 787 785 787 788 776 763 760 760 759 759 758 760 761 761 762 762 764 764 763 764 763 763 763 762 765 768 770 772 774 783 796 804 809 811 806 812 826 823 823 828 820 808 804 811 814 806 809 821 820 811 803 799 797 798 802 807 811 811 812 812 812 814 814 815 816
808 806 804 803 801 799 797 795 793 791 790 789 788 786 786 785 784 785 786 785 787 785 786 786 785 787 782 768 764 763 759 758 758 758 758 759 760 760 761 764 764 763 763 762 763 763 764 767 770 770 772 779 786 795 812 825 823 814 815 822 822 822 826 825 817 806 807 816 815 810 814 816 809 802 801 799 799 803 808 810 811 811 812 812 813 814 814 816
807 805 804 802 800 798 796 794 792 790 789 788 786 785 784 784 783 784 785 785 785 786 787 786 786 790 782 768 766 764 758 757 757 756 757 758 759 760 761 763 762 763 766 767 766 766 769 769 771 779 781 783 788 795 815 823 815 815 818 820 823 822 823 824 820 811 808 817 821 817 815 813 808 805 804 800 799 804 807 808 809 810 811 812 813 813 814 816
806 805 803 801 800 798 795 794 792 790 788 787 785 784 782 782 782 783 784 785 786 786 786 784 783 786 781 769 762 758 755 754 755 756 756 756 758 759 760 761 761 765 773 778 775 770 772 775 779 787 790 788 790 792 800 801 797 804 807 811 820 821 822 820 817 813 810 819 827 827 825 819 811 809 807 803 802 804 806 807 808 810 810 812 813 814 814 817
805 804 802 800 799 797 795 793 791 790 787 786 785 783 783 785 786 785 784 784 782 778 776 776 776 776 773 765 759 757 755 754 756 756 755 756 756 758 760 761 765 770 777 782 781 771 772 785 791 790 789 786 785 784 784 785 787 796 802 807 812 815 820 817 815 815 809 820 833 829 829 827 820 818 812 807 805 805 807 809 809 810 810 811 813 814 814 816
805 803 801 799 797 796 794 792 791 789 788 786 785 785 786 787 790 788 783 780 773 769 770 768 768 770 766 761 759 757 757 758 757 755 755 755 755 763 765 765 773 780 778 778 778 772 775 791 793 783 780 778 778 778 779 783 787 793 801 808 812 815 818 815 813 814 808 818 831 825 825 829 825 825 820 811 809 810 809 810 810 809 809 811 812 813 814 814
804 802 800 798 796 795 793 791 790 788 788 787 786 787 785 782 783 782 782 782 771 762 766 764 764 767 759 757 758 755 759 764 762 757 754 755 758 767 770 769 779 783 777 778 781 783 788 792 786 776 774 774 774 774 778 785 789 794 799 806 814 816 819 818 814 814 812 817 828 829 828 828 823 822 821 816 813 813 811 808 809 808 809 811 811 812 813 814
804 801 799 797 795 794 792 791 790 788 788 787 786 786 782 778 778 778 782 787 776 762 762 762 763 765 760 758 755 754 761 766 767 761 752 756 762 765 770 774 779 781 779 782 786 793 797 788 776 771 772 774 776 775 778 785 789 795 799 804 812 813 816 822 820 817 815 816 825 830 831 830 825 822 820 817 814 811 810 808 807 807 807 809 808 809 811 814
802 800 799 796 794 792 790 789 788 788 787 786 785 782 779 778 777 778 782 785 781 765 757 757 757 760 759 755 752 755 762 762 763 761 751 756 763 763 769 773 778 782 781 780 783 790 789 776 767 770 773 776 778 777 779 787 794 795 793 796 805 808 806 812 817 818 818 821 822 825 838 839 830 828 823 815 813 811 809 809 808 808 807 806 806 807 808 811
801 800 797 794 793 791 789 788 787 787 787 784 782 778 778 777 774 777 782 788 788 770 756 754 755 755 752 751 753 753 758 760 757 755 750 752 760 764 768 769 775 784 782 779 783 787 781 768 765 772 775 775 779 780 778 784 795 798 790 785 792 799 802 809 816 819 827 835 824 821 846 850 831 828 826 817 816 814 811 811 810 810 809 807 808 808 808 808
801 799 796 794 792 789 789 787 786 787 785 782 779 777 778 777 775 776 782 797 798 776 762 760 758 756 750 752 752 750 764 765 751 748 749 750 752 759 770 770 771 779 778 776 781 781 773 764 765 772 774 776 780 780 772 774 792 800 787 778 785 793 802 812 813 817 830 835 821 815 837 849 837 829 824 818 819 816 814 813 810 809 810 808 807 808 808 807
800 798 796 794 791 789 788 786 787 786 784 781 778 778 777 775 776 774 786 812 806 774 765 764 759 755 751 750 748 756 776 768 750 748 747 749 750 754 770 775 773 774 768 773 785 777 765 764 768 769 771 776 780 778 767 766 785 790 774 774 787 791 800 808 807 814 822 823 823 819 825 841 844 830 819 818 821 819 816 815 811 809 809 808 806 807 807 805
799 797 795 793 790 789 788 787 787 784 783 781 777 777 774 772 774 774 796 822 801 766 763 761 754 751 748 748 748 757 766 759 761 759 743 746 752 755 771 774 773 775 766 775 790 774 759 765 768 767 772 776 774 768 759 760 775 776 765 770 780 785 794 800 805 816 816 820 837 832 823 838 843 827 817 820 823 822 818 814 811 809 808 808 806 806 805 803
797 796 794 792 790 789 787 787 786 782 782 779 777 776 772 772 773 779 805 817 787 762 761 757 754 753 751 753 755 757 757 756 765 759 744 749 751 753 768 768 767 774 767 772 782 770 758 756 756 760 770 770 762 756 752 757 767 765 763 771 779 788 796 799 807 816 816 826 841 834 825 836 841 829 824 827 825 820 813 810 809 807 806 806 805 804 804 802
796 794 792 791 789 787 787 785 782 781 780 778 778 774 771 774 779 800 821 808 780 766 761 759 760 757 758 764 764 760 761 761 758 753 752 755 752 753 759 757 761 770 770 768 770 765 754 746 746 753 757 755 751 749 748 750 754 760 770 782 793 803 805 810 814 814 825 836 833 825 822 829 837 830 823 819 811 806 807 809 809 806 805 805 803 803 802 801
793 792 790 788 788 787 787 784 780 780 780 779 777 772 774 780 790 816 819 788 775 772 763 764 764 758 762 769 770 765 764 763 758 760 763 760 760 763 764 765 767 773 777 773 768 762 755 752 750 745 741 741 746 749 748 749 751 762 778 788 804 819 819 828 835 828 838 841 824 817 819 828 836 826 813 806 797 795 801 805 806 805 805 804 802 802 800 799
791 789 787 786 785 785 784 782 779 780 780 778 777 774 782 795 804 814 801 777 779 776 764 766 765 761 763 767 769 767 766 767 762 764 768 767 770 769 770 775 775 782 788 779 773 767 760 756 750 742 736 735 747 756 755 758 760 768 782 792 816 842 843 847 854 848 846 838 822 817 821 831 830 810 800 800 795 793 794 795 798 801 803 803 802 800 799 798
788 786 784 783 783 781 780 780 779 781 780 778 779 778 790 809 811 801 791 784 781 767 756 760 760 761 764 768 771 766 766 770 765 765 766 767 772 770 768 768 766 780 788 780 779 777 769 759 748 748 744 733 742 758 765 768 769 773 783 793 817 847 858 861 860 855 850 837 823 818 822 831 823 801 792 793 791 789 787 788 792 794 797 801 800 799 797 797
785 783 782 781 780 779 778 779 779 779 779 779 782 786 799 814 805 790 788 784 772 758 755 758 759 763 766 769 769 764 769 773 765 766 768 768 775 775 770 766 762 770 778 781 782 780 783 777 756 751 750 737 738 749 755 761 766 769 770 780 802 818 829 842 845 846 846 838 829 827 827 826 818 802 790 786 785 784 784 786 788 790 793 796 799 798 797 797
783 781 781 779 779 777 777 778 778 779 781 781 785 795 807 812 800 790 785 775 766 761 758 755 758 769 772 768 764 760 767 773 768 768 770 770 777 776 770 766 762 764 775 787 783 773 781 778 752 741 739 734 738 740 739 752 767 766 760 775 790 783 787 810 819 820 829 837 837 833 824 809 800 794 785 782 783 784 787 788 789 792 792 794 799 800 797 797
782 780 779 778 777 776 776 778 777 778 780 784 793 802 805 801 792 785 776 768 766 764 763 763 763 774 779 771 768 765 763 767 770 773 772 769 771 770 767 762 757 759 767 779 780 774 781 774 748 741 740 732 735 736 734 749 767 767 766 776 774 760 768 799 814 811 816 830 831 825 818 805 797 796 788 785 787 787 789 790 791 793 792 794 798 798 797 796
781 779 778 776 775 775 776 776 776 778 780 787 800 803 795 787 780 775 769 764 762 758 766 775 771 773 780 778 777 773 768 768 769 774 777 774 770 766 764 759 753 754 756 762 770 768 774 775 752 744 749 737 729 734 735 737 749 764 773 768 760 760 767 784 811 822 824 830 825 818 818 814 812 810 798 792 794 793 791 790 790 792 791 793 795 795 796 795
780 779 777 773 773 773 774 776 776 778 782 791 801 797 788 780 772 767 765 763 761 758 766 777 772 768 775 782 781 773 771 773 770 774 780 779 774 764 761 760 752 749 748 752 763 759 762 776 762 745 750 743 730 740 751 743 739 751 759 753 758 780 786 785 804 821 828 833 828 821 819 815 813 810 800 797 796 793 791 790 790 791 791 792 792 793 795 795
780 781 778 771 770 772 773 776 776 780 787 796 802 795 783 777 768 761 760 761 762 762 767 771 768 767 771 774 778 774 772 773 772 774 778 779 776 762 756 759 755 750 746 747 759 758 756 776 776 751 744 745 740 750 765 761 749 746 749 752 758 773 782 784 791 801 814 828 829 826 824 814 802 796 793 793 790 788 790 789 789 789 789 789 789 791 794 795
781 784 780 769 769 772 772 775 778 785 793 796 797 790 781 776 767 758 755 756 758 760 765 768 765 768 770 768 772 772 770 773 772 773 774 773 773 764 755 756 756 752 746 744 753 756 756 772 781 763 748 753 758 758 761 762 760 758 761 766 766 766 770 777 783 785 796 815 824 827 825 809 792 786 787 786 785 785 787 788 788 788 787 787 788 791 793 795
782 788 781 768 769 771 772 780 785 788 793 793 790 786 780 775 768 761 755 753 753 753 756 762 764 766 767 769 771 767 766 771 770 770 773 771 772 772 760 752 755 753 749 751 756 758 760 770 778 773 763 765 764 752 747 750 752 757 763 764 766 769 773 787 796 787 784 798 809 815 817 802 784 780 781 780 780 781 782 784 787 786 786 787 788 790 793 794
786 791 781 770 772 771 773 786 789 786 790 789 784 780 774 769 767 764 757 753 754 753 752 757 762 763 763 765 767 765 765 769 769 769 771 768 768 771 760 749 750 750 752 761 761 753 755 765 774 774 769 766 759 746 744 746 743 747 754 754 759 764 770 788 800 790 785 793 796 802 808 796 782 777 777 779 779 777 778 781 783 785 785 786 787 790 793 795
790 789 776 771 774 772 777 790 790 787 788 781 775 772 768 766 767 763 759 758 758 758 758 760 761 762 763 761 762 765 767 769 769 767 768 766 762 760 754 748 749 749 753 763 761 751 754 768 776 777 770 761 753 744 741 741 744 753 755 750 755 760 760 769 776 776 787 794 794 805 810 795 783 778 776 778 779 777 778 779 781 784 785 786 787 790 793 794
792 788 777 772 772 773 781 791 791 789 786 778 774 771 765 764 764 762 762 762 760 761 764 764 761 762 761 758 760 763 766 770 771 765 765 767 761 752 749 747 749 751 754 760 759 754 762 774 779 788 792 784 774 767 759 753 754 762 760 751 750 752 754 760 763 770 787 791 788 800 805 794 784 779 777 779 779 779 779 778 779 782 784 785 786 788 790 791
793 789 780 772 769 772 779 782 783 787 785 781 780 775 770 767 761 758 760 761 758 759 764 764 760 760 759 758 760 762 762 768 771 767 765 766 761 752 748 748 749 750 751 751 748 750 764 775 777 791 809 811 804 796 784 774 767 764 762 758 754 752 753 761 768 775 787 790 785 786 792 794 790 782 781 782 781 781 781 779 780 781 782 783 784 787 789 790
793 791 787 779 771 772 775 773 775 782 783 784 783 777 774 773 764 756 757 761 760 758 762 763 759 760 762 762 766 769 766 766 768 769 770 769 766 758 751 748 749 749 748 746 744 749 764 773 774 782 794 797 796 789 777 773 773 770 768 767 763 757 753 759 772 776 779 787 788 781 783 795 795 788 785 785 783 782 782 782 782 781 782 783 785 787 788 789
795 793 791 789 784 779 778 776 776 780 779 780 783 777 773 774 769 761 759 761 760 758 761 763 761 766 770 768 771 775 773 769 768 770 772 770 767 761 752 749 751 750 748 746 746 752 767 776 775 776 780 780 778 775 769 770 775 776 774 772 769 762 756 761 770 769 771 784 790 782 780 786 788 786 785 784 784 784 783 783 782 782 783 784 785 787 788 788
794 791 787 789 792 790 787 783 779 779 777 777 777 775 773 774 772 769 764 761 760 760 765 768 766 769 771 769 773 777 776 775 775 774 774 771 768 765 759 755 754 751 749 751 751 755 769 779 776 774 777 774 771 772 772 775 779 779 778 776 772 769 767 768 769 765 766 773 775 777 781 780 780 783 782 781 782 783 782 782 781 782 784 785 787 789 790 790
793 793 787 786 790 791 788 783 778 778 777 775 774 773 773 775 774 769 764 764 767 765 767 774 773 770 769 768 773 778 779 780 782 778 774 772 771 771 769 766 759 753 753 757 757 757 769 780 777 775 778 776 777 781 779 779 782 783 784 781 776 774 772 771 771 767 765 767 769 776 785 783 779 780 779 779 781 780 781 782 783 784 786 787 790 791 792 793
796 797 794 792 791 787 784 781 778 779 777 774 775 772 770 773 773 767 762 766 774 771 767 774 775 770 769 770 773 779 777 776 780 778 773 774 774 772 773 772 766 759 759 762 762 760 769 779 777 775 781 785 786 785 782 781 785 789 790 787 782 780 776 773 773 771 771 776 778 779 786 787 781 777 779 781 781 781 783 785 786 788 788 789 792 793 794 794
797 796 794 797 795 786 783 782 779 783 782 776 775 773 770 771 769 767 765 764 767 771 770 772 773 769 768 770 774 777 773 770 772 770 767 771 772 770 770 768 766 766 766 765 765 763 768 776 776 778 790 795 791 788 786 781 784 792 796 794 790 788 786 781 777 775 777 780 779 780 789 792 784 778 781 784 784 785 787 788 789 790 790 791 794 795 795 796
796 793 791 795 795 787 785 784 782 785 784 776 772 769 769 769 764 765 771 767 762 765 767 767 770 771 773 775 774 771 767 765 766 762 761 764 764 763 765 764 763 767 769 768 767 767 769 774 777 784 796 799 793 791 787 785 798 810 805 797 795 792 789 786 783 781 779 778 780 784 788 786 780 777 781 786 787 789 790 790 791 791 791 792 794 794 796 797